Regional Weather Roundup
Issued by NWS

Home | Current Version | Previous Version | Text Only | Print | Product List | Glossary On
Versions: 1 2 3 4 5 6 7 8 9 10 11 12 13 14 15 16 17 18 19 20 21 22 23 24 25 26 27 28 29 30 31 32 33 34 35 36 37 38 39 40 41 42 43 44 45 46 47 48 49 50
000
ASUS44 KBMX 270210
RWRAL

ALABAMA REGIONAL WEATHER ROUNDUP
NATIONAL WEATHER SERVICE BIRMINGHAM AL
800 PM CST FRI DEC 26 2014

NOTE: "FAIR" INDICATES FEW OR NO CLOUDS BELOW 12,000 FEET
WITH NO SIGNIFICANT WEATHER AND/OR OBSTRUCTIONS TO VISIBILITY.

THE REMARK "TC" DENOTES TEMPERATURE IN DEGREES CELSIUS.

ALZ001>011-014-016>018-020-270300-
NORTH ALABAMA

CITY           SKY/WX    TMP DP  RH WIND       PRES   REMARKS
MUSCLE SHOALS  PTCLDY    47  38  71 SE9       30.22S
HUNTSVILLE     MOCLDY    49  41  74 SE8       30.23F
DECATUR        MOCLDY    48  40  73 SE3       30.24F
HALEYVILLE     FAIR      47  41  80 SE9       30.24S
GADSDEN        MOCLDY    39  36  87 CALM      30.27F
$$

ALZ012-013-022-023-030>036-040>044-270300-
WEST CENTRAL ALABAMA

CITY           SKY/WX    TMP DP  RH WIND       PRES   REMARKS
TUSCALOOSA     MOCLDY    53  42  66 E6        30.26S
$$

ALZ015-024>027-033>036-040>044-270300-
CENTRAL ALABAMA

CITY           SKY/WX    TMP DP  RH WIND       PRES   REMARKS
BIRMINGHAM     PTCLDY    46  39  76 CALM      30.28F
MONTGOMERY     CLEAR     47  37  68 E3        30.29S
SHELBY CO ARPT PTCLDY    46  41  82 CALM      30.27S
MAXWELL AFB    PTCLDY    47  44  88 N2        30.28S
GREENVILLE     FAIR      43  39  86 CALM      30.27R
$$

ALZ019-021-028-029-037-038-045>048-270300-
EAST CENTRAL ALABAMA

CITY           SKY/WX    TMP DP  RH WIND       PRES   REMARKS
ANNISTON       PTCLDY    48  38  68 NE6       30.28R
ALEXANDER CITY CLEAR     43  38  82 CALM      30.29R
AUBURN         CLEAR     43  34  70 NE5       30.31F
$$

ALZ051>064-270300-
SOUTHWEST ALABAMA

CITY           SKY/WX    TMP DP  RH WIND       PRES   REMARKS
MOBILE         CLOUDY    57  49  74 E15       30.23F
BROOKLEY FIELD MOCLDY    59  51  75 E12       30.26R
EVERGREEN      CLEAR     45  42  89 CALM      30.28R
$$

ALZ049-050-065>069-270300-
SOUTHEAST ALABAMA

CITY           SKY/WX    TMP DP  RH WIND       PRES   REMARKS
DOTHAN         CLEAR     49  41  74 E5        30.31R
OZARK          CLEAR     47  39  72 NE2       30.29R
TROY           CLEAR     43  38  82 CALM      30.29R
EUFAULA        FAIR      41  39  93 CALM      30.30R
$$


USA.gov is the U.S. government's official web portal to all federal, state and local government web resources and services.